TimeMST,TemperatureF,Dew PointF,Humidity,Sea Level PressureIn,VisibilityMPH,Wind Direction,Wind SpeedMPH,Gust SpeedMPH,PrecipitationIn,Events,Conditions,WindDirDegrees,DateUTC
12:55 AM,68.0,30.2,24,29.90,10.0,SSW,4.6,-,N/A,,Scattered Clouds,210,2013-10-08 07:55:00
1:55 AM,64.4,30.2,28,29.90,10.0,SW,5.8,-,N/A,,Scattered Clouds,220,2013-10-08 08:55:00
2:55 AM,64.4,30.2,28,29.88,10.0,SSW,3.5,-,N/A,,Scattered Clouds,210,2013-10-08 09:55:00
3:55 AM,64.4,30.2,28,29.88,10.0,Calm,Calm,-,N/A,,Partly Cloudy,0,2013-10-08 10:55:00
4:55 AM,62.6,30.2,30,29.89,10.0,SSE,5.8,-,N/A,,Partly Cloudy,150,2013-10-08 11:55:00
5:55 AM,60.8,30.2,31,29.90,10.0,Variable,5.8,-,N/A,,Partly Cloudy,0,2013-10-08 12:55:00
6:55 AM,60.8,33.8,36,29.93,10.0,South,6.9,-,N/A,,Partly Cloudy,170,2013-10-08 13:55:00
7:55 AM,69.8,33.8,27,29.91,10.0,SSE,5.8,-,N/A,,Partly Cloudy,150,2013-10-08 14:55:00
8:55 AM,71.6,33.8,25,29.91,10.0,Variable,6.9,-,N/A,,Clear,0,2013-10-08 15:55:00
9:55 AM,75.2,33.8,22,29.91,10.0,Variable,4.6,-,N/A,,Clear,0,2013-10-08 16:55:00
10:55 AM,78.8,35.6,21,29.88,10.0,SSW,8.1,19.6,N/A,,Clear,200,2013-10-08 17:55:00
11:55 AM,80.6,32.0,17,29.87,10.0,West,13.8,20.7,N/A,,Clear,260,2013-10-08 18:55:00
12:55 PM,80.6,30.2,16,29.83,10.0,SSW,15.0,21.9,N/A,,Partly Cloudy,210,2013-10-08 19:55:00
1:55 PM,80.6,28.4,15,29.82,10.0,SSW,11.5,26.5,N/A,,Partly Cloudy,210,2013-10-08 20:55:00
2:55 PM,80.6,28.4,15,29.82,10.0,West,13.8,-,N/A,,Partly Cloudy,260,2013-10-08 21:55:00
3:55 PM,78.8,26.6,15,29.81,10.0,WSW,10.4,20.7,N/A,,Partly Cloudy,240,2013-10-08 22:55:00
4:55 PM,78.8,26.6,15,29.82,10.0,SW,9.2,-,N/A,,Partly Cloudy,220,2013-10-08 23:55:00
5:55 PM,73.4,24.8,16,29.83,10.0,WSW,6.9,-,N/A,,Partly Cloudy,240,2013-10-09 00:55:00
6:55 PM,69.8,24.8,18,29.84,10.0,SSW,9.2,-,N/A,,Scattered Clouds,210,2013-10-09 01:55:00
7:55 PM,66.2,24.8,21,29.83,10.0,SSW,12.7,-,N/A,,Mostly Cloudy,210,2013-10-09 02:55:00
8:55 PM,66.2,24.8,21,29.83,10.0,SSW,3.5,-,N/A,,Mostly Cloudy,210,2013-10-09 03:55:00
9:55 PM,66.2,23.0,19,30.00,10.0,Variable,5.8,-,N/A,,Scattered Clouds,0,2013-10-09 04:55:00
10:55 PM,66.2,26.6,23,29.81,10.0,Variable,2.3,-,N/A,,Partly Cloudy,0,2013-10-09 05:55:00
11:55 PM,62.6,28.4,27,29.80,10.0,South,10.4,-,N/A,,Clear,180,2013-10-09 06:55:00